Regional Weather Roundup
Issued by NWS

Home | Current Version | Previous Version | Text Only | Print | Product List | Glossary On
Versions: 1 2 3 4 5 6 7 8 9 10 11 12 13 14 15 16 17 18 19 20 21 22 23 24 25 26 27 28 29 30 31 32 33 34 35 36 37 38 39 40 41 42 43 44 45 46 47 48 49 50
000
ASUS44 KFWD 310310
RWRTX
NORTH TEXAS HOURLY WEATHER ROUNDUP
NATIONAL WEATHER SERVICE FORT WORTH TX
1000 PM CDT WED JUL 30 2014

NOTE: "FAIR" INDICATES FEW OR NO CLOUDS BELOW 12,000 FEET WITH NO
SIGNIFICANT WEATHER AND/OR OBSTRUCTIONS TO VISIBILITY.

TXZ118-119-310400-
DALLAS/FORT WORTH METROPLEX

CITY           SKY/WX    TMP DP  RH WIND       PRES   REMARKS
DFW AIRPORT    PTCLDY    84  71  65 SE14      29.91R
DALLAS LOVE    MOCLDY    83  71  67 SE17      29.92R
FTW MEACHAM    CLEAR     86  66  51 SE15      29.90R
DAL-EXECUTIVE  CLEAR     83  71  67 SE13      29.92R
FTW-ALLIANCE   PTCLDY    83  69  62 SE13G18   29.90R
FTW-NAS-JRB    MOCLDY    88  64  44 SE14      29.94R
FTW-SPINKS     CLEAR     84  66  53 SE12G17   29.92R
ARLINGTON      CLEAR     84  66  54 SE14G20   29.91R
GRAND PRAIRIE  CLEAR     84  70  62 E13       29.92R
ADDISON        PTCLDY    84  70  61 SE14G24   29.93R
MESQUITE       CLEAR     80  70  71 SE8       29.94
LANCASTER      CLEAR     81  70  68 SE8       29.94R
$$

TXZ091>094-102>105-117-120-121-131>134-310400-
NORTH CENTRAL TEXAS

CITY           SKY/WX    TMP DP  RH WIND       PRES   REMARKS
SHRMAN/DENISON MOCLDY    75  70  84 E16G23    29.92F
GAINESVILLE    MOCLDY    77  71  82 E14G21    29.90F
BOWIE          LGT RAIN  78  73  82 S7        29.90R
BRIDGEPORT     MOCLDY    85  65  51 SE8       29.91R
DECATUR        PTCLDY    81  69  66 SE10      29.91R
DENTON         PTCLDY    83  71  67 SE15      29.89F
MCKINNEY       PTCLDY    80  70  71 SE9       29.93S
GREENVILLE     MOCLDY    77  70  78 E9        29.97R
ROCKWALL       PTCLDY    80  71  72 E10       29.93R
TERRELL        CLEAR     82  70  66 SE8       29.95R
WAXAHACHIE     CLEAR     82  69  64 SE6       29.94R
CLEBURNE       CLEAR     84  70  61 SE13      29.93R
GRANBURY       CLEAR     87  68  53 SE12      29.90R HX  90
$$

TXZ083>090-098>101-113>116-127>130-139>142-154-155-310400-
WESTERN NORTH TEXAS

CITY           SKY/WX    TMP DP  RH WIND       PRES   REMARKS
WICHITA FALLS  MOCLDY    74  69  85 N16G25    29.96R
WF-KICKAPOO    CLOUDY    78  71  79 N15G25    29.97R
VERNON         CLOUDY    74  66  77 N13       30.02R
ABILENE        CLOUDY    83  68  60 CALM      29.95R
ABILENE-DYESS  CLOUDY    82  66  57 VRB1      29.94R THUNDER
BRECKENRIDGE   CLOUDY    84  64  50 E8        29.91R
GRAHAM         MOCLDY    85  68  56 CALM      29.90R
MINERAL WELLS  PTCLDY    85  68  56 SE9       29.89R
STEPHENVILLE   CLEAR     86  60  41 S12       29.94R
COMANCHE       PTCLDY    84  58  40 SE10      29.92R
BROWNWOOD      MOCLDY    88  54  31 SE12G17   29.91R
COLEMAN        PTCLDY    88  52  29 SE10      29.93R
BRADY          CLEAR     88  54  31 SE10      29.93R
$$

TXZ143>147-156>162-174-175-310400-
CENTRAL TEXAS

CITY           SKY/WX    TMP DP  RH WIND       PRES   REMARKS
WACO           CLEAR     86  69  56 SE13      29.91R HX  90
WACO-TSTC      CLEAR     84  59  42 SE6       29.92R
WACO-MCGREGOR  PTCLDY    84  66  54 SE9       29.93R
HILLSBORO      CLEAR     84  67  56 SE9       29.93R
CORSICANA      PTCLDY    83  70  64 SE10      29.96R
MEXIA          CLEAR     81  71  71 SE5       29.93R
HEARNE         PTCLDY   N/A N/A N/A SE7       29.94R
CAMERON        MOCLDY    85  72  63 SE8       29.92R HX  91
TEMPLE         PTCLDY    84  64  51 SE10      29.93R
KILLEEN        MOCLDY    84  68  58 SE12      29.93R
KILLEEN-SKYLRK PTCLDY    84  66  54 SE10      29.92R
FORT HOOD      PTCLDY    87  68  52 E7        29.93R HX  90
GATESVILLE     PTCLDY    84  68  58 SE6       29.94R
HAMILTON       CLEAR     84  59  43 SE9       29.93R
LAMPASAS       PTCLDY    82  65  55 SE5       29.92S
$$

TXZ095>097-106>112-122>126-135>138-148>153-164>167-310400-
EAST TEXAS

CITY           SKY/WX    TMP DP  RH WIND       PRES   REMARKS
PARIS          CLOUDY    70  63  78 E16       30.00R
SULPHUR SPRNGS MOCLDY    73  67  81 E7        30.01R
CLARKSVILLE    CLOUDY    72  66  83 E6        30.01R
MOUNT PLEASANT MOCLDY    72  67  84 E7        30.02R
GILMER         MOCLDY    75  70  83 E5        30.01R
MINEOLA        PTCLDY    79  70  73 SE3       29.98R
TYLER          PTCLDY    81  70  69 E7        29.98R
LONGVIEW       MOCLDY    78  64  61 E7        29.98R
MARSHALL       CLOUDY    78  71  77 E6        30.02R
ATHENS         CLEAR     77  70  78 SE3       29.96R
JACKSONVILLE   PTCLDY    80  67  65 SE7       30.01R
HENDERSON      MOCLDY    79  67  67 MISG      30.00R
NACOGDOCHES    PTCLDY    79  68  69 E6        29.99R
LUFKIN         CLEAR     81  70  69 E6        29.98R
$$

SUPPLEMENTAL OBSERVATIONS (CENTRAL)

CITY           SKY/WX    TMP DP  RH WIND       PRES   REMARKS
PAT MAYSE LAKE   N/A     70  64  83 E10         N/A
GREENVILLE       N/A     73  66  78 E9          N/A
CEDAR HILL       N/A     82  72  69 SE5G13      N/A
MCGREGOR         N/A     84  66  54 SE6         N/A
$$

SUPPLEMENTAL OBSERVATIONS (WEST)

CITY           SKY/WX    TMP DP  RH WIND       PRES   REMARKS
MILLERS CREEK    N/A     81  66  61 NE12G21     N/A
HAMBY            N/A     77  70  78 N2          N/A
IVIE RESERVOIR   N/A     88  52  29 SE9         N/A
COLORADO BEND    N/A     84  54  34 SE7         N/A
$$

SUPPLEMENTAL OBSERVATIONS (EAST)

CITY           SKY/WX    TMP DP  RH WIND       PRES   REMARKS
CLARKSVILLE      N/A     70  64  83 SE8         N/A
TEXARKANA        N/A     70  64  83 E2          N/A
LINDEN           N/A     72  66  83 E6          N/A
GILMER           N/A     75  66  73 SE3         N/A
HENDERSON        N/A     79  66  65 CALM        N/A
LUFKIN           N/A     81  73  78 MISG        N/A
N SABINE NF      N/A     73  66  78 MISG        N/A
S SABINE NF      N/A     81  66  61 E5          N/A
$$

SUPPLEMENTAL OBSERVATIONS ARE A COLLECTION OF AUTOMATED INSTRUMENTS
THAT ARE MAINTAINED BY A VARIETY OF FEDERAL AND STATE AGENCIES.
CERTAIN ELEMENTS...SUCH AS HUMIDITY VALUES AND SUSTAINED WIND
SPEEDS...MAY BE APPROXIMATED.



USA.gov is the U.S. government's official web portal to all federal, state and local government web resources and services.